FW9558 Weather Reports


Display with metric or nautical units.
time (UTC)temp
F
wind
direction
speed
MPH
gust
MPH
rain 1hr
in
rain 24hr
in
rain mn
in
humidity
%
barometer
mb
20260508030040 50 0 0.0 2.0 0.00 0.00 0.00 89 1012.6
20260508024542 50 0 0.0 3.0 0.00 0.00 0.00 88 1012.7
20260508023041 50 0 0.0 3.0 0.00 0.00 0.00 88 1012.7
20260508021540 50 63 0.0 2.0 0.00 0.00 0.00 88 1012.6
20260508020038 51 0 0.0 0.0 0.00 0.00 0.00 87 1012.7
20260508014540 51 0 0.0 0.0 0.00 0.00 0.00 87 1013.0
20260508013042 51 0 0.0 0.0 0.00 0.00 0.00 86 1013.0
20260508011542 52 0 0.0 0.0 0.00 0.00 0.00 86 1013.0
20260508010048 52 0 0.0 0.0 0.00 0.00 0.00 85 1012.9
20260508004538 52 0 0.0 0.0 0.00 0.00 0.00 85 1012.9
20260508003036 52 0 0.0 0.0 0.00 0.00 0.00 84 1013.0
20260508001536 53 0 0.0 0.0 0.00 0.00 0.00 83 1012.9
20260508000041 53 0 0.0 0.0 0.00 0.00 0.00 83 1013.1
20260507234542 53 0 0.0 0.0 0.00 0.00 0.00 83 1013.0
20260507233037 53 0 0.0 0.0 0.00 0.00 0.00 83 1013.1
20260507231543 54 0 0.0 0.0 0.00 0.00 0.00 83 1013.1
20260507230042 54 0 0.0 0.0 0.00 0.00 0.00 83 1013.2
20260507224540 54 0 0.0 0.0 0.00 0.00 0.00 83 1013.2
20260507223038 54 0 0.0 0.0 0.00 0.00 0.00 82 1013.3
20260507221537 55 0 0.0 0.0 0.00 0.00 0.00 82 1013.4
20260507220117 55 0 0.0 0.0 0.00 0.00 0.00 81 1013.5
20260507214545 55 0 0.0 0.0 0.00 0.00 0.00 80 1013.5
20260507213039 56 0 0.0 0.0 0.00 0.00 0.00 80 1013.5
20260507211542 57 0 0.0 0.0 0.00 0.00 0.00 79 1013.4
20260507210039 57 0 0.0 0.0 0.00 0.00 0.00 78 1013.4
20260507204538 58 0 0.0 0.0 0.00 0.00 0.00 78 1013.0
20260507203037 58 0 0.0 0.0 0.00 0.00 0.00 76 1013.0
20260507201543 59 0 0.0 3.0 0.00 0.00 0.00 76 1012.9
20260507200040 60 42 0.0 3.0 0.00 0.00 0.00 75 1013.0
20260507194537 60 0 0.0 1.0 0.00 0.00 0.00 74 1012.9
20260507193043 61 0 0.0 0.0 0.00 0.00 0.00 74 1012.8
20260507191536 61 0 0.0 0.0 0.00 0.00 0.00 73 1012.7
20260507190040 62 0 0.0 2.0 0.00 0.00 0.00 71 1012.4
20260507184538 63 71 0.0 3.0 0.00 0.00 0.00 69 1012.4
20260507183046 64 0 1.0 4.0 0.00 0.00 0.00 68 1012.3
20260507181542 64 0 0.0 4.0 0.00 0.00 0.00 67 1012.2
20260507180040 64 70 0.0 3.0 0.00 0.00 0.00 66 1012.4
20260507174535 64 0 0.0 4.0 0.00 0.00 0.00 65 1012.4
20260507173045 65 74 1.0 5.0 0.00 0.00 0.00 63 1012.3
20260507171548 65 63 1.0 3.0 0.00 0.00 0.00 62 1012.3
20260507170037 66 121 2.0 6.0 0.00 0.00 0.00 61 1012.2
20260507164544 67 0 1.0 6.0 0.00 0.00 0.00 61 1012.3
20260507163043 66 94 1.0 5.0 0.00 0.00 0.00 61 1012.3
20260507161543 65 112 2.0 4.0 0.00 0.00 0.00 61 1012.5
20260507160047 65 0 0.0 3.0 0.00 0.00 0.00 64 1012.5
20260507154538 65 71 1.0 4.0 0.00 0.00 0.00 61 1012.4
20260507153043 65 123 1.0 4.0 0.00 0.00 0.00 63 1012.6
20260507151535 66 88 1.0 4.0 0.00 0.00 0.00 60 1012.7
20260507150036 65 114 1.0 6.0 0.00 0.00 0.00 61 1012.9
20260507144539 66 99 2.0 4.0 0.00 0.00 0.00 61 1013.0
20260507143042 67 103 2.0 8.0 0.00 0.00 0.00 56 1013.2
20260507141543 67 113 2.0 6.0 0.00 0.00 0.00 60 1013.3
20260507140038 67 82 2.0 7.0 0.00 0.00 0.00 60 1013.3
20260507134536 66 115 3.0 7.0 0.00 0.00 0.00 61 1013.6
20260507133040 66 91 1.0 6.0 0.00 0.00 0.00 61 1013.6
20260507131535 66 79 2.0 7.0 0.00 0.00 0.00 60 1013.7
20260507130050 65 109 2.0 6.0 0.00 0.00 0.00 60 1013.9
20260507124555 64 41 1.0 8.0 0.00 0.00 0.00 63 1013.9
20260507123037 64 144 2.0 6.0 0.00 0.00 0.00 61 1013.9
20260507121540 64 106 2.0 8.0 0.00 0.00 0.00 62 1014.1
20260507120040 64 355 3.0 9.0 0.00 0.00 0.00 63 1014.1
20260507114556 64 140 2.0 6.0 0.00 0.00 0.00 61 1014.2
20260507113038 63 67 2.0 4.0 0.00 0.00 0.00 65 1014.2
20260507111538 63 108 1.0 6.0 0.00 0.00 0.00 67 1014.7
20260507110043 62 112 0.0 6.0 0.00 0.00 0.00 66 1014.7
20260507104549 63 108 1.0 6.0 0.00 0.00 0.00 65 1014.8
20260507103040 63 132 1.0 4.0 0.00 0.00 0.00 66 1015.0
20260507101538 62 0 1.0 5.0 0.00 0.00 0.00 69 1014.9
20260507100042 62 80 1.0 5.0 0.00 0.00 0.00 67 1015.1
20260507094537 62 94 2.0 7.0 0.00 0.00 0.00 69 1014.9
20260507093040 61 106 3.0 8.0 0.00 0.00 0.00 72 1015.0
20260507091544 61 105 1.0 5.0 0.00 0.00 0.00 75 1015.1
20260507090039 59 80 1.0 5.0 0.00 0.00 0.00 77 1015.1
20260507084540 59 69 1.0 4.0 0.00 0.00 0.00 79 1015.1
20260507083036 58 0 1.0 4.0 0.00 0.00 0.00 81 1015.1
20260507081543 57 0 0.0 3.0 0.00 0.00 0.00 83 1015.0
20260507080041 56 0 0.0 0.0 0.00 0.00 0.00 85 1015.0
20260507074532 56 0 1.0 4.0 0.00 0.00 0.00 86 1014.9
20260507073042 55 63 0.0 4.0 0.00 0.00 0.00 89 1014.8
20260507071537 54 0 0.0 3.0 0.00 0.00 0.00 91 1014.8
20260507070037 53 0 0.0 3.0 0.00 0.00 0.00 93 1014.7
20260507064540 52 0 0.0 0.0 0.00 0.00 0.00 93 1014.6
20260507063052 52 0 0.0 0.0 0.00 0.00 0.00 94 1014.6
20260507061546 51 0 0.0 1.0 0.00 0.00 0.00 94 1014.6
20260507060043 50 0 0.0 0.0 0.00 0.00 0.00 94 1014.4
20260507054541 50 0 0.0 0.0 0.00 0.00 0.00 94 1014.3
20260507053040 49 0 0.0 0.0 0.00 0.00 0.00 94 1014.2
20260507051536 49 0 0.0 0.0 0.00 0.00 0.00 93 1014.2
20260507050039 49 0 0.0 0.0 0.00 0.00 0.00 93 1014.1
20260507044542 50 0 0.0 0.0 0.00 0.00 0.00 93 1014.1
20260507043038 50 0 0.0 0.0 0.00 0.00 0.00 93 1014.1
20260507041537 50 0 0.0 0.0 0.00 0.00 0.00 93 1014.0
20260507040041 51 0 0.0 0.0 0.00 0.00 0.00 93 1014.1
20260507034540 51 0 0.0 0.0 0.00 0.00 0.00 93 1014.1
20260507033039 51 0 0.0 0.0 0.00 0.00 0.00 92 1014.0
20260507031537 51 0 0.0 0.0 0.00 0.00 0.00 92 1014.0